User: anonymous
Location: Unspecified
(0.0000°N, 0.0000°E)
Time: 14:46:44
(UTC+00:00)
Language:

Vela 5A - Orbit

View from above orbital plane
View from above orbital plane
View from above satellite
View from above satellite

Ground track
Ground track

The orbit data is extracted from the following two-line orbital elements,

1 03954U 69046  D 84183.00025463  .00000557 +00000-0 +00000-0 0 00886
2 03954 061.5932 051.6530 2911378 079.9637 110.9535 00.21489622011922
Epoch (UTC): 01 July 1984 00:00:22
Eccentricity: 0.2911378
inclination: 61.5932°
perigee height: 77081 km
apogee height: 145636 km
right ascension of ascending node: 51.6530°
argument of perigee: 79.9637°
revolutions per day: 0.21489622
mean anomaly at epoch: 110.9535°
orbit number at epoch: 1192

The dashed part of the orbit path shows where the satellite is in the earth's shadow,  

DLR